Showing default

DIADEME 2, 2680

Orbit data source: Space-Track

DIADEME 2, 2680 is a payload satellite owned by CNES (FR) in LEO that was launched on Wed, 15 Feb 1967 UTC via a DIAMANT A launch vehicle from the Hamma Guira Space Track Range (HGSTR). Payload-class satellites include a variety of spacecraft equipped with specific instruments for various scientific and technological missions. These include communications satellites like Starlink; space stations such as the ISS; scientific satellites like the Hubble; Earth observation satellites from companies like Planet Labs, Umbra, and HawkEye 360; GPS; miniature CubeSats for education and research; and military/defense satellites.

Loading next visibility...
Identifier
2680, 1967-014A
Orbit
LEO
Last TLE update
11 hours ago
Origin
Manufacturer
CNES
Mission
Civil Geodetic
Bus & Motor
D-1, Unknown motor
Mass
23 kg wet, 23 kg dry
Launch date (UTC)
1967-02-15 (58 years ago)
Launch vehicle
DIAMANT A
Launch site
Hamma Guira Space Track Range (HGSTR)
Object type
Payload
Rocket body
Debris
Shape & HBR
Cyl + 4 Pan, 1.5 m
Radar Cross Section
0.455 m², Medium (>0.1 m² and < 1m²)

Expand to show TLE details & history

TLE from 11 hours ago
0 DIADEME 2
1  2680U 67014A   25182.09464551  .00000370  00000-0  17640-3 0  9997
2  2680  39.4386 220.5286 0703675 200.3639 156.7666 13.40972996829283
Epoch: 2025-07-01T02:16Z
TLE epoch observation values (Epoch: 2025-07-01T02:16:17.372Z)
Latitude
-0.00003°
Longitude
-92.93885°
Altitude
1,594.157 km
Speed
6.839 km/s
True Right ascension
14h 42m 06s
True Declination
0° 00' 00"
Sunlit
Object was in daylight at epoch
Visualization orbit readout
Latitude
33.39857°
Longitude
-42.07423°
Altitude
1,514.308 km
Speed
6.916 km/s
Apparent Right ascension
15h 58m 51s
Apparent Declination
1° 36' 03"
Sunlit
Object is in daylight
Visualization observer readout
Local Sidereal Time
00:58:55
Azimuth
303.913° NW
Elevation
-31.624°
Doppler factor
1
Orbital elements
Apogee altitude
1,634.783 km
Perigee altitude
581.221 km
Semi-major axis
7,486.139 km
Eccentricity
0.07037
Inclination
39.4386°
RAAN
220.5286°
Arg. of periapsis
200.3639°
True anomaly
Unknown
Mean anomaly
156.7666°
Eccentric anomaly
Unknown
Mean motion
3.35086 °/min
Orbital period
107.44 mins
BSTAR
0.0001764
Loading maneuver chart data...
Loading SW <> Apogee altitude chart data...
Loading historical data...
Loading historical data...
Loading historical data...
Loading historical data...
Loading historical data...
Loading historical data...
Loading historical data...

DIADEME 2 Visibility forecast

Observer location: undefined°, undefined°

Span
Click to sort rows by Start time (UTC) header in descending order
Start Az.
Max El. time (UTC)
Max El. Az.
Max El.
End time (UTC)
End Az.
10 mins2025-07-02 03:24:59.732Z166.368° S2025-07-02 03:29:59.732Z134.891° SE16.436°2025-07-02 03:34:59.732Z103.081° ESE
16 mins2025-07-02 05:14:59.732Z215.106° SW2025-07-02 05:22:59.732Z153.516° SSE35.551°2025-07-02 05:30:59.732Z83.563° E
16 mins2025-07-02 07:08:59.732Z250.113° W2025-07-02 07:16:59.732Z189.19° SSW44.309°2025-07-02 07:24:59.732Z82.799° E
14 mins2025-07-02 09:03:59.732Z272.795° WNW2025-07-02 09:11:59.732Z127.306° SE44.681°2025-07-02 09:17:59.732Z98.87° ESE
12 mins2025-07-02 10:58:59.732Z276.501° WNW2025-07-02 11:04:59.732Z213.357° SW38.139°2025-07-02 11:10:59.732Z132.71° SE
5 mins2025-07-02 12:54:59.732Z249.955° W2025-07-02 12:56:59.732Z230.737° WSW14.529°2025-07-02 12:59:59.732Z198.047° SSW
|